Regional Weather Roundup
Issued by NWS

Home | Current Version | Previous Version | Graphics & Text | Print | Product List | Glossary On
Versions: 1 2 3 4 5 6 7 8 9 10 11 12 13 14 15 16 17 18 19 20 21 22 23 24 25 26 27 28 29 30 31 32 33 34 35 36 37 38 39 40 41 42 43 44 45 46 47 48 49 50
000
ASUS43 KBIS 161810
RWRND

NORTH DAKOTA REGIONAL WEATHER ROUNDUP
NATIONAL WEATHER SERVICE BISMARCK ND
100 PM CDT TUE SEP 16 2014

NOTE: "FAIR" INDICATES FEW OR NO CLOUDS BELOW 12,000 FEET WITH NO
SIGNIFICANT WEATHER AND/OR OBSTRUCTIONS TO VISIBILITY.


NDZ001>003-009>011-017-161900-
NORTHWEST NORTH DAKOTA

CITY           SKY/WX    TMP DP  RH WIND       PRES   REMARKS
WILLISTON      SUNNY     69  36  29 E3        29.99F
6HR MIN TEMP:  33; 6HR MAX TEMP:  70;

MINOT          SUNNY     69  43  38 NE7       29.98F
MINOT AFB      SUNNY     68  41  36 NE6       29.97F
$$

NDZ018>021-031>035-040>046-161900-
SOUTHWEST NORTH DAKOTA

CITY           SKY/WX    TMP DP  RH WIND       PRES   REMARKS
BISMARCK       SUNNY     67  46  47 SE3       30.00F
6HR MIN TEMP:  40; 6HR MAX TEMP:  68;

DICKINSON      SUNNY     69  48  47 NE5       29.97F
GARRISON         N/A     64  47  53 S6        29.99F
6HR MIN TEMP:  43; 6HR MAX TEMP:  64;

HETTINGER ARPT SUNNY     70  46  42 VRB3      29.99F
$$

NDZ004>008-012>016-024-026-027-054-161900-
NORTHEAST NORTH DAKOTA

CITY           SKY/WX    TMP DP  RH WIND       PRES   REMARKS
GRAND FORKS    MOSUNNY   71  44  37 W10       29.99F
GRND FRKS AFB  SUNNY     72  46  39 SW10      30.00F
DEVILS LAKE    SUNNY     66  45  45 SW6       29.99F
$$

NDZ022-023-025-028>030-036>039-047>053-161900-
SOUTHEAST NORTH DAKOTA

CITY           SKY/WX    TMP DP  RH WIND       PRES   REMARKS
FARGO          SUNNY     68  44  42 S9        30.03F
6HR MIN TEMP:  43; 6HR MAX TEMP:  68;

JAMESTOWN      SUNNY     66  46  48 S10       30.00F
$$



USA.gov is the U.S. government's official web portal to all federal, state and local government web resources and services.